{"data":{"norad_id":56731,"epoch":"2026-05-24T22:32:33.124992Z","epoch_age_seconds":80308,"freshness":"FRESH","line1":"1 56731U 23069A   26144.93927228  .00010128  00000+0  24570-3 0  9993","line2":"2 56731  40.9956 316.0760 0006002 124.6189 235.5201 15.40951162169467","mean_motion":15.40951162,"eccentricity":0.0006002,"inclination_deg":40.9956,"raan_deg":316.076,"arg_perigee_deg":124.6189,"mean_anomaly_deg":235.5201,"bstar":0.0002457,"rev_number":16946,"period_min":93.448776022922,"perigee_km":439.20659544763,"apogee_km":447.39504940967,"semimajor_km":6821.4378224287,"source":"CELESTRAK","updated_at":"2026-05-25T13:37:59.658953Z"}}